| time (UTC) | temp F | wind direction | speed knots | gust knots | rain 1hr in | rain 24hr in | rain mn in | humidity % | barometer mb |
| 20260507073553 | 55 | 15 | 0.9 | 5.2 | 0.00 | 0.51 | 0.36 | 92 | 1010.4 |
| 20260507073047 | 55 | 94 | 0.9 | 5.2 | 0.00 | 0.51 | 0.36 | 92 | 1010.4 |
| 20260507072542 | 55 | 32 | 0.0 | 2.6 | 0.00 | 0.51 | 0.36 | 92 | 1010.3 |
| 20260507072255 | 55 | 51 | 0.9 | 4.3 | 0.00 | 0.51 | 0.36 | 92 | 1010.2 |
| 20260507071530 | 55 | 46 | 0.9 | 4.3 | 0.00 | 0.51 | 0.36 | 92 | 1010.2 |
| 20260507071023 | 55 | 60 | 0.9 | 3.5 | 0.00 | 0.51 | 0.36 | 92 | 1010.4 |
| 20260507070517 | 56 | 63 | 0.9 | 4.3 | 0.00 | 0.51 | 0.36 | 92 | 1010.4 |
| 20260507070013 | 56 | 82 | 0.9 | 4.3 | 0.00 | 0.51 | 0.36 | 92 | 1010.4 |
| 20260507065505 | 56 | 14 | 0.9 | 2.6 | 0.00 | 0.51 | 0.36 | 91 | 1010.6 |
| 20260507064959 | 56 | 47 | 0.0 | 2.6 | 0.00 | 0.51 | 0.36 | 91 | 1010.4 |
| 20260507064453 | 56 | 92 | 0.9 | 2.6 | 0.00 | 0.51 | 0.36 | 91 | 1010.3 |
| 20260507063947 | 56 | 52 | 0.9 | 4.3 | 0.00 | 0.51 | 0.36 | 91 | 1010.2 |
| 20260507063441 | 56 | 55 | 0.9 | 4.3 | 0.01 | 0.51 | 0.36 | 91 | 1010.3 |
| 20260507062935 | 56 | 50 | 1.7 | 4.3 | 0.01 | 0.51 | 0.36 | 91 | 1010.4 |
| 20260507062429 | 56 | 321 | 1.7 | 5.2 | 0.02 | 0.51 | 0.36 | 91 | 1010.4 |
| 20260507061925 | 56 | 82 | 1.7 | 5.2 | 0.02 | 0.51 | 0.36 | 91 | 1010.7 |
| 20260507061418 | 56 | 36 | 1.7 | 7.0 | 0.04 | 0.51 | 0.36 | 91 | 1010.6 |
| 20260507060913 | 57 | 92 | 2.6 | 7.0 | 0.05 | 0.51 | 0.36 | 91 | 1010.3 |
| 20260507060405 | 57 | 295 | 1.7 | 7.0 | 0.05 | 0.51 | 0.36 | 91 | 1010.2 |
| 20260507055900 | 57 | 40 | 1.7 | 5.2 | 0.05 | 0.51 | 0.36 | 91 | 1010.1 |
| 20260507055615 | 57 | 53 | 1.7 | 6.1 | 0.06 | 0.51 | 0.36 | 91 | 1010.0 |
| 20260507054847 | 58 | 62 | 1.7 | 6.1 | 0.06 | 0.51 | 0.36 | 90 | 1009.8 |
| 20260507054610 | 58 | 25 | 1.7 | 5.2 | 0.06 | 0.51 | 0.36 | 90 | 1009.4 |
| 20260507053835 | 58 | 20 | 1.7 | 5.2 | 0.06 | 0.51 | 0.36 | 90 | 1009.6 |
| 20260507053336 | 58 | 70 | 0.9 | 3.5 | 0.06 | 0.50 | 0.35 | 90 | 1009.8 |
| 20260507052836 | 58 | 80 | 0.9 | 3.5 | 0.08 | 0.50 | 0.35 | 90 | 1010.0 |
| 20260507052334 | 59 | 117 | 0.9 | 1.7 | 0.08 | 0.49 | 0.34 | 90 | 1009.5 |
| 20260507051835 | 59 | 82 | 0.0 | 1.7 | 0.10 | 0.48 | 0.33 | 89 | 1010.1 |
| 20260507051335 | 59 | 28 | 0.0 | 1.7 | 0.16 | 0.47 | 0.32 | 89 | 1010.5 |
| 20260507050833 | 59 | 21 | 0.9 | 1.7 | 0.26 | 0.46 | 0.31 | 89 | 1010.3 |
| 20260507050330 | 59 | 53 | 0.0 | 1.7 | 0.31 | 0.46 | 0.31 | 89 | 1010.4 |
| 20260507045830 | 60 | 69 | 0.0 | 1.7 | 0.31 | 0.46 | 0.31 | 89 | 1010.5 |
| 20260507045553 | 60 | 187 | 0.9 | 3.5 | 0.30 | 0.45 | 0.30 | 88 | 1010.1 |
| 20260507044825 | 60 | 9 | 0.9 | 7.8 | 0.30 | 0.45 | 0.30 | 88 | 1010.0 |
| 20260507044325 | 60 | 355 | 1.7 | 7.8 | 0.30 | 0.45 | 0.30 | 88 | 1010.0 |
| 20260507043823 | 61 | 100 | 0.9 | 5.2 | 0.30 | 0.45 | 0.30 | 87 | 1010.1 |
| 20260507043323 | 61 | 279 | 0.9 | 3.5 | 0.29 | 0.44 | 0.29 | 87 | 1010.3 |
| 20260507042823 | 62 | 94 | 1.7 | 4.3 | 0.27 | 0.42 | 0.28 | 87 | 1010.4 |
| 20260507042323 | 62 | 47 | 1.7 | 4.3 | 0.26 | 0.41 | 0.26 | 86 | 1010.9 |
| 20260507041823 | 63 | 244 | 1.7 | 4.3 | 0.22 | 0.37 | 0.23 | 86 | 1010.9 |
| 20260507041321 | 63 | 209 | 1.7 | 4.3 | 0.14 | 0.29 | 0.16 | 85 | 1010.9 |
| 20260507040818 | 64 | 132 | 0.9 | 4.3 | 0.05 | 0.20 | 0.05 | 84 | 1010.2 |
| 20260507040319 | 64 | 36 | 0.9 | 2.6 | 0.00 | 0.15 | 0.00 | 84 | 1009.9 |
| 20260507040036 | 64 | 79 | 0.9 | 3.5 | 0.00 | 0.15 | 0.15 | 83 | 1009.3 |
| 20260507035307 | 64 | 71 | 0.9 | 3.5 | 0.00 | 0.15 | 0.15 | 83 | 1009.4 |
| 20260507034801 | 64 | 78 | 0.9 | 3.5 | 0.00 | 0.15 | 0.15 | 83 | 1009.5 |
| 20260507034256 | 64 | 24 | 0.9 | 3.5 | 0.00 | 0.15 | 0.15 | 82 | 1009.6 |
| 20260507033750 | 64 | 16 | 1.7 | 4.3 | 0.00 | 0.15 | 0.15 | 83 | 1009.5 |
| 20260507033243 | 64 | 57 | 1.7 | 4.3 | 0.00 | 0.15 | 0.15 | 83 | 1009.5 |
| 20260507032737 | 64 | 86 | 1.7 | 5.2 | 0.00 | 0.15 | 0.15 | 83 | 1009.5 |
| 20260507032231 | 64 | 51 | 0.9 | 6.1 | 0.00 | 0.15 | 0.15 | 83 | 1009.7 |
| 20260507031725 | 65 | 12 | 0.9 | 6.1 | 0.00 | 0.15 | 0.15 | 84 | 1009.7 |
| 20260507031220 | 65 | 308 | 0.9 | 2.6 | 0.00 | 0.15 | 0.15 | 84 | 1009.8 |
| 20260507030713 | 65 | 28 | 1.7 | 2.6 | 0.00 | 0.15 | 0.15 | 85 | 1009.9 |
| 20260507030207 | 65 | 57 | 1.7 | 3.5 | 0.00 | 0.15 | 0.15 | 86 | 1009.7 |
| 20260507025702 | 65 | 57 | 1.7 | 7.0 | 0.00 | 0.15 | 0.15 | 87 | 1009.2 |
| 20260507025155 | 65 | 22 | 0.9 | 7.0 | 0.00 | 0.15 | 0.15 | 88 | 1009.0 |
| 20260507024649 | 65 | 19 | 1.7 | 2.6 | 0.00 | 0.15 | 0.15 | 88 | 1009.3 |
| 20260507024143 | 65 | 61 | 1.7 | 4.3 | 0.00 | 0.15 | 0.15 | 88 | 1009.4 |
| 20260507023640 | 65 | 44 | 0.0 | 4.3 | 0.00 | 0.15 | 0.15 | 88 | 1009.5 |
| 20260507023403 | 65 | 36 | 0.0 | 0.0 | 0.00 | 0.15 | 0.15 | 88 | 1009.6 |
| 20260507022915 | 65 | 36 | 0.0 | 0.0 | 0.00 | 0.15 | 0.15 | 87 | 1009.3 |
| 20260507022142 | 65 | 350 | 0.0 | 0.0 | 0.00 | 0.15 | 0.15 | 87 | 1009.2 |
| 20260507021642 | 65 | 350 | 0.0 | 0.0 | 0.00 | 0.15 | 0.15 | 87 | 1009.2 |
| 20260507021141 | 65 | 234 | 0.0 | 0.0 | 0.00 | 0.15 | 0.15 | 87 | 1008.9 |
| 20260507020641 | 66 | 234 | 0.0 | 0.9 | 0.00 | 0.15 | 0.15 | 87 | 1008.6 |
| 20260507020140 | 66 | 234 | 0.0 | 0.9 | 0.00 | 0.15 | 0.15 | 87 | 1008.4 |
| 20260507015637 | 66 | 234 | 0.0 | 0.0 | 0.00 | 0.15 | 0.15 | 86 | 1008.7 |
| 20260507015140 | 66 | 234 | 0.0 | 0.0 | 0.00 | 0.15 | 0.15 | 86 | 1008.8 |
| 20260507014640 | 66 | 234 | 0.0 | 0.0 | 0.00 | 0.15 | 0.15 | 86 | 1008.9 |
| 20260507014137 | 66 | 234 | 0.0 | 0.0 | 0.00 | 0.15 | 0.15 | 86 | 1008.9 |
| 20260507013634 | 66 | 234 | 0.0 | 0.0 | 0.00 | 0.15 | 0.15 | 85 | 1009.1 |
| 20260507013131 | 66 | 234 | 0.0 | 0.0 | 0.00 | 0.15 | 0.15 | 85 | 1009.2 |
| 20260507012629 | 66 | 234 | 0.0 | 0.0 | 0.00 | 0.15 | 0.15 | 85 | 1009.0 |
| 20260507012131 | 66 | 234 | 0.0 | 0.0 | 0.00 | 0.15 | 0.15 | 85 | 1009.1 |
| 20260507011627 | 67 | 234 | 0.0 | 0.0 | 0.00 | 0.15 | 0.15 | 84 | 1009.2 |
| 20260507011126 | 67 | 234 | 0.0 | 0.0 | 0.00 | 0.15 | 0.15 | 84 | 1009.2 |
| 20260507010623 | 67 | 234 | 0.0 | 0.0 | 0.00 | 0.15 | 0.15 | 83 | 1009.0 |
| 20260507010354 | 67 | 234 | 0.0 | 0.0 | 0.00 | 0.15 | 0.15 | 83 | 1009.0 |
| 20260507005836 | 67 | 234 | 0.0 | 0.0 | 0.00 | 0.15 | 0.15 | 83 | 1009.1 |
| 20260507005110 | 67 | 234 | 0.0 | 0.0 | 0.00 | 0.15 | 0.15 | 82 | 1009.1 |
| 20260507004603 | 67 | 234 | 0.0 | 0.0 | 0.00 | 0.15 | 0.15 | 82 | 1009.1 |
| 20260507004057 | 68 | 234 | 0.0 | 0.0 | 0.00 | 0.15 | 0.15 | 82 | 1009.0 |
| 20260507003551 | 68 | 234 | 0.0 | 0.0 | 0.00 | 0.15 | 0.15 | 81 | 1008.8 |
| 20260507003045 | 68 | 234 | 0.0 | 0.0 | 0.00 | 0.15 | 0.15 | 81 | 1008.6 |
| 20260507002539 | 68 | 234 | 0.0 | 1.7 | 0.00 | 0.15 | 0.15 | 81 | 1008.6 |
| 20260507002254 | 68 | 234 | 0.0 | 2.6 | 0.00 | 0.15 | 0.15 | 81 | 1008.6 |
| 20260507001534 | 68 | 240 | 0.0 | 2.6 | 0.00 | 0.15 | 0.15 | 81 | 1008.7 |
| 20260507001035 | 69 | 269 | 0.0 | 1.7 | 0.00 | 0.15 | 0.15 | 81 | 1008.6 |
| 20260507000532 | 69 | 271 | 0.9 | 5.2 | 0.00 | 0.15 | 0.15 | 81 | 1008.6 |
| 20260507000306 | 69 | 272 | 0.9 | 5.2 | 0.00 | 0.15 | 0.15 | 80 | 1008.5 |
| 20260506235532 | 69 | 229 | 0.9 | 3.5 | 0.00 | 0.15 | 0.15 | 80 | 1008.4 |
| 20260506235032 | 69 | 225 | 0.9 | 4.3 | 0.00 | 0.15 | 0.15 | 80 | 1008.2 |
| 20260506234532 | 69 | 159 | 0.9 | 5.2 | 0.00 | 0.15 | 0.15 | 79 | 1008.1 |
| 20260506234032 | 69 | 221 | 0.9 | 5.2 | 0.00 | 0.15 | 0.15 | 80 | 1008.1 |
| 20260506233532 | 69 | 299 | 0.9 | 6.1 | 0.00 | 0.15 | 0.15 | 79 | 1008.1 |
| 20260506233514 | 69 | 117 | 0.9 | 6.1 | 0.00 | 0.15 | 0.15 | 79 | 1008.0 |
| 20260506232527 | 69 | 246 | 0.9 | 5.2 | 0.00 | 0.15 | 0.15 | 79 | 1007.9 |
| 20260506232029 | 70 | 227 | 0.9 | 5.2 | 0.00 | 0.15 | 0.15 | 79 | 1007.9 |
| 20260506231746 | 70 | 126 | 0.9 | 5.2 | 0.00 | 0.15 | 0.15 | 79 | 1008.0 |
| 20260506231029 | 70 | 260 | 0.9 | 3.5 | 0.00 | 0.15 | 0.15 | 79 | 1008.0 |
| 20260506230801 | 70 | 234 | 1.7 | 5.2 | 0.00 | 0.15 | 0.15 | 78 | 1008.1 |
| 20260506230027 | 70 | 251 | 1.7 | 5.2 | 0.00 | 0.15 | 0.15 | 79 | 1007.9 |
| 20260506225529 | 70 | 254 | 1.7 | 7.0 | 0.00 | 0.15 | 0.15 | 78 | 1007.9 |
| 20260506225028 | 70 | 198 | 1.7 | 7.0 | 0.00 | 0.15 | 0.15 | 79 | 1007.9 |
| 20260506224529 | 70 | 218 | 0.9 | 7.0 | 0.00 | 0.15 | 0.15 | 79 | 1008.0 |
| 20260506224025 | 70 | 171 | 0.9 | 5.2 | 0.00 | 0.15 | 0.15 | 79 | 1007.9 |
| 20260506223523 | 70 | 248 | 0.9 | 5.2 | 0.00 | 0.15 | 0.15 | 80 | 1007.9 |
| 20260506223025 | 70 | 261 | 0.9 | 2.6 | 0.00 | 0.15 | 0.15 | 81 | 1007.9 |
| 20260506222525 | 70 | 287 | 0.9 | 3.5 | 0.00 | 0.15 | 0.15 | 81 | 1008.0 |
| 20260506222024 | 70 | 223 | 0.9 | 5.2 | 0.00 | 0.15 | 0.15 | 81 | 1008.0 |
| 20260506221524 | 70 | 210 | 0.0 | 5.2 | 0.00 | 0.15 | 0.15 | 81 | 1008.0 |
| 20260506221249 | 70 | 209 | 0.0 | 3.5 | 0.00 | 0.15 | 0.15 | 80 | 1007.9 |
| 20260506220524 | 70 | 209 | 0.9 | 3.5 | 0.00 | 0.15 | 0.15 | 81 | 1007.8 |
| 20260506220239 | 70 | 275 | 0.9 | 3.5 | 0.00 | 0.15 | 0.15 | 80 | 1007.8 |
| 20260506215518 | 69 | 228 | 0.9 | 4.3 | 0.00 | 0.15 | 0.15 | 81 | 1008.0 |
| 20260506215016 | 69 | 227 | 0.9 | 4.3 | 0.00 | 0.15 | 0.15 | 81 | 1008.0 |
| 20260506214516 | 69 | 194 | 0.9 | 4.3 | 0.00 | 0.15 | 0.15 | 80 | 1007.9 |
| 20260506214010 | 69 | 126 | 0.9 | 4.3 | 0.00 | 0.15 | 0.15 | 80 | 1007.9 |
| 20260506213511 | 69 | 215 | 0.9 | 2.6 | 0.00 | 0.15 | 0.15 | 81 | 1008.0 |
| 20260506213008 | 69 | 84 | 1.7 | 5.2 | 0.00 | 0.15 | 0.15 | 80 | 1008.1 |
| 20260506212505 | 69 | 208 | 0.9 | 5.2 | 0.00 | 0.15 | 0.15 | 79 | 1008.1 |
| 20260506212005 | 69 | 263 | 0.9 | 2.6 | 0.00 | 0.15 | 0.15 | 81 | 1008.0 |
| 20260506211503 | 69 | 90 | 0.0 | 2.6 | 0.00 | 0.15 | 0.15 | 80 | 1007.9 |
| 20260506211004 | 69 | 80 | 0.9 | 4.3 | 0.00 | 0.15 | 0.15 | 80 | 1007.8 |
| 20260506210503 | 69 | 262 | 1.7 | 4.3 | 0.00 | 0.15 | 0.15 | 81 | 1007.9 |
| 20260506210003 | 69 | 58 | 0.9 | 3.5 | 0.00 | 0.15 | 0.15 | 82 | 1007.7 |
| 20260506205726 | 69 | 275 | 0.9 | 5.2 | 0.00 | 0.15 | 0.15 | 82 | 1007.8 |
| 20260506205003 | 69 | 249 | 1.7 | 7.8 | 0.00 | 0.15 | 0.15 | 81 | 1007.8 |
| 20260506204734 | 69 | 212 | 1.7 | 7.8 | 0.00 | 0.15 | 0.15 | 82 | 1007.7 |
| 20260506204221 | 68 | 192 | 1.7 | 7.0 | 0.00 | 0.15 | 0.15 | 81 | 1007.9 |
| 20260506203459 | 68 | 232 | 0.9 | 6.1 | 0.00 | 0.15 | 0.15 | 82 | 1007.7 |
| 20260506203000 | 68 | 300 | 1.7 | 5.2 | 0.00 | 0.15 | 0.15 | 82 | 1007.8 |
| 20260506202725 | 68 | 173 | 1.7 | 7.0 | 0.00 | 0.15 | 0.15 | 82 | 1007.9 |
| 20260506202000 | 68 | 142 | 1.7 | 7.0 | 0.00 | 0.15 | 0.15 | 81 | 1007.8 |
| 20260506201459 | 68 | 154 | 0.9 | 4.3 | 0.00 | 0.15 | 0.15 | 81 | 1007.7 |
| 20260506201000 | 69 | 249 | 0.9 | 3.5 | 0.00 | 0.15 | 0.15 | 84 | 1007.9 |
| 20260506200453 | 69 | 280 | 0.9 | 3.5 | 0.00 | 0.15 | 0.15 | 81 | 1007.8 |
| 20260506200440 | 68 | 297 | 1.7 | 8.7 | 0.00 | 0.15 | 0.15 | 82 | 1007.8 |
| 20260506195442 | 68 | 118 | 1.7 | 8.7 | 0.00 | 0.15 | 0.15 | 83 | 1007.9 |
| 20260506194936 | 68 | 234 | 1.7 | 4.3 | 0.00 | 0.15 | 0.15 | 81 | 1007.8 |
| 20260506194430 | 67 | 121 | 1.7 | 5.2 | 0.00 | 0.15 | 0.15 | 83 | 1007.8 |
| 20260506193922 | 67 | 270 | 1.7 | 7.8 | 0.00 | 0.15 | 0.15 | 83 | 1008.0 |
| 20260506193417 | 67 | 128 | 1.7 | 7.8 | 0.00 | 0.15 | 0.15 | 84 | 1008.0 |
| 20260506192910 | 67 | 35 | 1.7 | 7.8 | 0.00 | 0.15 | 0.15 | 84 | 1008.0 |
| 20260506192404 | 66 | 331 | 2.6 | 8.7 | 0.00 | 0.15 | 0.15 | 85 | 1008.0 |
| 20260506191858 | 66 | 294 | 2.6 | 8.7 | 0.00 | 0.15 | 0.15 | 84 | 1008.2 |
| 20260506191352 | 66 | 278 | 1.7 | 6.1 | 0.00 | 0.15 | 0.15 | 84 | 1008.1 |
| 20260506191111 | 66 | 237 | 1.7 | 8.7 | 0.00 | 0.15 | 0.15 | 84 | 1008.5 |
| 20260506190339 | 66 | 250 | 1.7 | 8.7 | 0.00 | 0.15 | 0.15 | 85 | 1008.5 |
| 20260506185550 | 66 | 225 | 1.7 | 7.8 | 0.00 | 0.15 | 0.15 | 85 | 1008.6 |
| 20260506184822 | 66 | 271 | 1.7 | 6.1 | 0.00 | 0.15 | 0.15 | 84 | 1008.7 |
| 20260506184316 | 66 | 230 | 1.7 | 3.5 | 0.00 | 0.15 | 0.15 | 85 | 1008.8 |
| 20260506183811 | 66 | 15 | 1.7 | 6.1 | 0.00 | 0.15 | 0.15 | 86 | 1008.7 |
| 20260506183305 | 66 | 260 | 1.7 | 6.1 | 0.00 | 0.15 | 0.15 | 85 | 1009.0 |
| 20260506182759 | 66 | 164 | 1.7 | 6.1 | 0.00 | 0.15 | 0.15 | 85 | 1008.6 |
| 20260506182252 | 65 | 194 | 1.7 | 6.1 | 0.00 | 0.15 | 0.15 | 85 | 1008.8 |
| 20260506181746 | 65 | 127 | 0.9 | 3.5 | 0.00 | 0.15 | 0.15 | 86 | 1008.6 |
| 20260506181241 | 65 | 153 | 0.9 | 6.1 | 0.00 | 0.15 | 0.15 | 85 | 1008.7 |
| 20260506180735 | 65 | 209 | 0.9 | 6.1 | 0.00 | 0.15 | 0.15 | 85 | 1008.8 |
| 20260506180715 | 65 | 140 | 1.7 | 4.3 | 0.00 | 0.15 | 0.15 | 85 | 1008.7 |
| 20260506175722 | 65 | 140 | 1.7 | 7.8 | 0.00 | 0.15 | 0.15 | 87 | 1008.7 |
| 20260506175645 | 65 | 267 | 1.7 | 7.8 | 0.00 | 0.15 | 0.15 | 85 | 1009.0 |
| 20260506175306 | 65 | 148 | 1.7 | 7.8 | 0.00 | 0.15 | 0.15 | 86 | 1008.9 |
| 20260506174425 | 65 | 165 | 1.7 | 5.2 | 0.00 | 0.15 | 0.15 | 86 | 1008.9 |
| 20260506173658 | 65 | 115 | 1.7 | 7.8 | 0.00 | 0.15 | 0.15 | 86 | 1008.9 |
| 20260506173152 | 65 | 178 | 1.7 | 7.8 | 0.00 | 0.15 | 0.15 | 86 | 1009.0 |
| 20260506172646 | 64 | 198 | 1.7 | 7.8 | 0.00 | 0.15 | 0.15 | 86 | 1009.2 |
| 20260506172143 | 64 | 251 | 1.7 | 7.8 | 0.00 | 0.15 | 0.15 | 87 | 1009.3 |
| 20260506171904 | 64 | 273 | 1.7 | 9.6 | 0.00 | 0.15 | 0.15 | 87 | 1009.2 |
| 20260506171406 | 64 | 214 | 2.6 | 9.6 | 0.00 | 0.15 | 0.15 | 86 | 1009.2 |
| 20260506170643 | 64 | 241 | 2.6 | 9.6 | 0.00 | 0.15 | 0.15 | 86 | 1009.3 |
| 20260506170143 | 64 | 162 | 1.7 | 9.6 | 0.00 | 0.15 | 0.15 | 87 | 1009.4 |
| 20260506165642 | 64 | 86 | 2.6 | 10.4 | 0.00 | 0.15 | 0.15 | 88 | 1009.3 |
| 20260506165143 | 64 | 158 | 2.6 | 10.4 | 0.00 | 0.15 | 0.15 | 86 | 1009.4 |
| 20260506164643 | 64 | 234 | 2.6 | 9.6 | 0.00 | 0.15 | 0.15 | 87 | 1009.2 |
| 20260506164143 | 64 | 154 | 2.6 | 10.4 | 0.00 | 0.15 | 0.15 | 87 | 1009.4 |
| 20260506163643 | 63 | 143 | 2.6 | 13.0 | 0.00 | 0.15 | 0.15 | 87 | 1009.3 |
| 20260506163142 | 63 | 240 | 2.6 | 13.0 | 0.00 | 0.15 | 0.15 | 89 | 1009.3 |
| 20260506162643 | 63 | 185 | 2.6 | 10.4 | 0.00 | 0.15 | 0.15 | 89 | 1009.4 |
| 20260506162143 | 63 | 198 | 2.6 | 10.4 | 0.00 | 0.15 | 0.15 | 90 | 1009.4 |
| 20260506161646 | 63 | 89 | 2.6 | 7.8 | 0.00 | 0.15 | 0.15 | 92 | 1009.6 |
| 20260506161144 | 62 | 181 | 2.6 | 9.6 | 0.00 | 0.15 | 0.15 | 91 | 1009.5 |
| 20260506160909 | 62 | 221 | 2.6 | 9.6 | 0.00 | 0.15 | 0.15 | 91 | 1009.5 |
| 20260506160145 | 61 | 185 | 2.6 | 11.3 | 0.00 | 0.15 | 0.15 | 91 | 1009.6 |
| 20260506155640 | 62 | 240 | 1.7 | 11.3 | 0.00 | 0.15 | 0.15 | 92 | 1009.6 |
| 20260506155133 | 62 | 173 | 1.7 | 9.6 | 0.01 | 0.15 | 0.15 | 92 | 1009.4 |
| 20260506154627 | 62 | 254 | 2.6 | 7.0 | 0.01 | 0.15 | 0.15 | 92 | 1009.6 |
| 20260506154123 | 62 | 233 | 2.6 | 7.0 | 0.01 | 0.15 | 0.15 | 92 | 1009.6 |
| 20260506153623 | 62 | 242 | 1.7 | 7.0 | 0.01 | 0.15 | 0.15 | 92 | 1009.7 |
| 20260506153122 | 62 | 220 | 1.7 | 7.0 | 0.03 | 0.15 | 0.15 | 93 | 1009.6 |
| 20260506152621 | 62 | 101 | 1.7 | 8.7 | 0.04 | 0.15 | 0.15 | 93 | 1009.6 |
| 20260506152120 | 61 | 188 | 2.6 | 8.7 | 0.05 | 0.15 | 0.15 | 93 | 1009.6 |
| 20260506151836 | 61 | 294 | 1.7 | 8.7 | 0.07 | 0.15 | 0.15 | 93 | 1009.7 |
| 20260506151336 | 61 | 136 | 1.7 | 7.8 | 0.08 | 0.15 | 0.15 | 94 | 1009.6 |
| 20260506150836 | 61 | 137 | 2.6 | 10.4 | 0.09 | 0.15 | 0.15 | 94 | 1009.5 |
| 20260506150113 | 61 | 209 | 2.6 | 10.4 | 0.09 | 0.15 | 0.15 | 94 | 1009.7 |
| 20260506145843 | 60 | 230 | 1.7 | 5.2 | 0.09 | 0.15 | 0.15 | 93 | 1009.9 |
| 20260506145114 | 60 | 191 | 0.9 | 5.2 | 0.08 | 0.14 | 0.14 | 93 | 1009.9 |
| 20260506145031 | 60 | 97 | 1.7 | 6.1 | 0.08 | 0.14 | 0.14 | 93 | 1010.0 |
| 20260506144701 | 60 | 294 | 0.9 | 6.1 | 0.08 | 0.14 | 0.14 | 93 | 1009.9 |
| 20260506143610 | 60 | 139 | 1.7 | 6.1 | 0.08 | 0.14 | 0.14 | 92 | 1010.1 |
| 20260506143107 | 61 | 229 | 1.7 | 6.1 | 0.07 | 0.12 | 0.12 | 91 | 1010.1 |
| 20260506142608 | 61 | 132 | 1.7 | 5.2 | 0.07 | 0.11 | 0.11 | 91 | 1010.2 |
| 20260506142105 | 61 | 200 | 1.7 | 5.2 | 0.06 | 0.10 | 0.10 | 91 | 1010.3 |
| 20260506141606 | 61 | 215 | 0.9 | 4.3 | 0.05 | 0.08 | 0.08 | 91 | 1010.3 |
| 20260506141100 | 61 | 110 | 0.9 | 4.3 | 0.04 | 0.06 | 0.06 | 91 | 1010.2 |
| 20260506140554 | 61 | 206 | 0.9 | 6.1 | 0.05 | 0.06 | 0.06 | 91 | 1010.1 |
| 20260506140048 | 61 | 291 | 0.9 | 6.1 | 0.05 | 0.06 | 0.06 | 90 | 1010.1 |
| 20260506135816 | 61 | 120 | 0.0 | 3.5 | 0.05 | 0.06 | 0.06 | 89 | 1010.1 |
| 20260506135048 | 61 | 156 | 0.0 | 1.7 | 0.06 | 0.06 | 0.06 | 89 | 1010.0 |
| 20260506134545 | 61 | 125 | 0.9 | 2.6 | 0.06 | 0.06 | 0.06 | 88 | 1010.0 |
| 20260506134044 | 61 | 153 | 0.9 | 5.2 | 0.06 | 0.06 | 0.06 | 88 | 1010.1 |
| 20260506133546 | 61 | 152 | 0.9 | 5.2 | 0.06 | 0.06 | 0.06 | 87 | 1010.2 |
| 20260506133045 | 61 | 78 | 0.0 | 2.6 | 0.05 | 0.05 | 0.05 | 87 | 1010.3 |
| 20260506132545 | 61 | 109 | 0.0 | 2.6 | 0.04 | 0.04 | 0.04 | 87 | 1010.2 |
| 20260506132044 | 62 | 173 | 0.9 | 2.6 | 0.04 | 0.04 | 0.04 | 86 | 1010.1 |
| 20260506131545 | 62 | 109 | 0.9 | 6.1 | 0.03 | 0.03 | 0.03 | 86 | 1010.2 |
| 20260506131046 | 62 | 131 | 0.9 | 6.1 | 0.02 | 0.02 | 0.02 | 85 | 1010.4 |
| 20260506130540 | 62 | 195 | 0.9 | 3.5 | 0.01 | 0.01 | 0.01 | 85 | 1010.6 |
| 20260506130301 | 62 | 257 | 0.9 | 5.2 | 0.01 | 0.01 | 0.01 | 85 | 1010.4 |
| 20260506125540 | 62 | 221 | 0.9 | 5.2 | 0.01 | 0.01 | 0.01 | 84 | 1010.2 |
| 20260506125041 | 62 | 123 | 0.9 | 5.2 | 0.00 | 0.00 | 0.00 | 83 | 1010.3 |
| 20260506124542 | 63 | 221 | 0.9 | 5.2 | 0.00 | 0.00 | 0.00 | 83 | 1010.3 |
| 20260506124042 | 63 | 219 | 0.9 | 3.5 | 0.00 | 0.00 | 0.00 | 83 | 1010.2 |
| 20260506123802 | 63 | 137 | 0.9 | 3.5 | 0.00 | 0.00 | 0.00 | 83 | 1010.1 |
| 20260506123040 | 63 | 53 | 0.9 | 3.5 | 0.00 | 0.00 | 0.00 | 82 | 1010.0 |
| 20260506122543 | 63 | 209 | 0.9 | 3.5 | 0.00 | 0.00 | 0.00 | 82 | 1009.9 |
| 20260506122307 | 63 | 101 | 0.9 | 2.6 | 0.00 | 0.00 | 0.00 | 82 | 1010.0 |
| 20260506121541 | 63 | 202 | 0.9 | 2.6 | 0.00 | 0.00 | 0.00 | 81 | 1010.0 |
| 20260506121531 | 64 | 87 | 0.9 | 3.5 | 0.00 | 0.00 | 0.00 | 81 | 1010.0 |
| 20260506120541 | 64 | 222 | 0.9 | 3.5 | 0.00 | 0.00 | 0.00 | 80 | 1009.8 |
| 20260506120527 | 64 | 113 | 0.9 | 4.3 | 0.00 | 0.00 | 0.00 | 80 | 1009.9 |
| 20260506115810 | 64 | 130 | 0.9 | 4.3 | 0.00 | 0.00 | 0.00 | 79 | 1010.1 |
| 20260506115041 | 64 | 126 | 0.9 | 7.0 | 0.00 | 0.00 | 0.00 | 78 | 1010.2 |
| 20260506114540 | 64 | 132 | 0.9 | 7.0 | 0.00 | 0.00 | 0.00 | 77 | 1010.3 |
| 20260506114043 | 64 | 190 | 1.7 | 6.1 | 0.00 | 0.00 | 0.00 | 76 | 1010.3 |
| 20260506113535 | 65 | 277 | 1.7 | 6.1 | 0.00 | 0.00 | 0.00 | 76 | 1010.3 |
| 20260506113030 | 65 | 188 | 0.9 | 5.2 | 0.00 | 0.00 | 0.00 | 76 | 1010.2 |
| 20260506112523 | 65 | 163 | 1.7 | 6.1 | 0.00 | 0.00 | 0.00 | 75 | 1010.1 |
| 20260506112017 | 65 | 269 | 2.6 | 7.8 | 0.00 | 0.00 | 0.00 | 74 | 1010.0 |
| 20260506111511 | 65 | 74 | 1.7 | 7.8 | 0.00 | 0.00 | 0.00 | 73 | 1009.9 |
| 20260506111010 | 65 | 281 | 1.7 | 8.7 | 0.00 | 0.00 | 0.00 | 74 | 1009.8 |
| 20260506110734 | 65 | 81 | 2.6 | 8.7 | 0.00 | 0.00 | 0.00 | 73 | 1009.7 |
| 20260506110230 | 65 | 298 | 1.7 | 6.1 | 0.00 | 0.00 | 0.00 | 73 | 1009.6 |
| 20260506105506 | 65 | 232 | 1.7 | 7.0 | 0.00 | 0.00 | 0.00 | 73 | 1009.6 |
| 20260506105005 | 65 | 121 | 1.7 | 8.7 | 0.00 | 0.00 | 0.00 | 73 | 1009.6 |
| 20260506104504 | 65 | 63 | 1.7 | 8.7 | 0.00 | 0.00 | 0.00 | 73 | 1009.6 |
| 20260506104003 | 65 | 232 | 1.7 | 8.7 | 0.00 | 0.00 | 0.00 | 73 | 1009.6 |
| 20260506103502 | 65 | 143 | 1.7 | 10.4 | 0.00 | 0.00 | 0.00 | 73 | 1009.6 |
| 20260506103003 | 65 | 143 | 1.7 | 10.4 | 0.00 | 0.00 | 0.00 | 73 | 1009.5 |
| 20260506102505 | 65 | 207 | 2.6 | 10.4 | 0.00 | 0.00 | 0.00 | 73 | 1009.5 |
| 20260506102003 | 65 | 257 | 1.7 | 10.4 | 0.00 | 0.00 | 0.00 | 73 | 1009.5 |
| 20260506101502 | 65 | 132 | 1.7 | 7.8 | 0.00 | 0.00 | 0.00 | 72 | 1009.5 |
| 20260506101003 | 65 | 146 | 1.7 | 7.8 | 0.00 | 0.00 | 0.00 | 72 | 1009.5 |
| 20260506100500 | 65 | 223 | 1.7 | 8.7 | 0.00 | 0.00 | 0.00 | 72 | 1009.5 |
| 20260506100000 | 65 | 250 | 1.7 | 8.7 | 0.00 | 0.00 | 0.00 | 72 | 1009.6 |
| 20260506095502 | 65 | 200 | 1.7 | 7.8 | 0.00 | 0.00 | 0.00 | 72 | 1009.6 |
| 20260506095002 | 65 | 156 | 1.7 | 4.3 | 0.00 | 0.00 | 0.00 | 72 | 1009.5 |
| 20260506094455 | 65 | 115 | 1.7 | 6.1 | 0.00 | 0.00 | 0.00 | 72 | 1009.4 |
| 20260506094220 | 65 | 162 | 1.7 | 6.1 | 0.00 | 0.00 | 0.00 | 71 | 1009.5 |
| 20260506093443 | 65 | 179 | 1.7 | 4.3 | 0.00 | 0.00 | 0.00 | 71 | 1009.5 |
| 20260506092937 | 65 | 202 | 1.7 | 4.3 | 0.00 | 0.00 | 0.00 | 71 | 1009.6 |
| 20260506092431 | 65 | 175 | 1.7 | 7.8 | 0.00 | 0.00 | 0.00 | 71 | 1009.4 |
| 20260506091925 | 65 | 131 | 1.7 | 8.7 | 0.00 | 0.00 | 0.00 | 71 | 1009.4 |
| 20260506091419 | 65 | 115 | 1.7 | 8.7 | 0.00 | 0.00 | 0.00 | 70 | 1009.5 |
| 20260506090913 | 65 | 191 | 1.7 | 6.1 | 0.00 | 0.00 | 0.00 | 70 | 1009.5 |
| 20260506090406 | 65 | 262 | 1.7 | 6.1 | 0.00 | 0.00 | 0.00 | 70 | 1009.7 |
| 20260506085901 | 65 | 182 | 1.7 | 8.7 | 0.00 | 0.00 | 0.00 | 70 | 1009.7 |
| 20260506085619 | 66 | 288 | 1.7 | 8.7 | 0.00 | 0.00 | 0.00 | 70 | 1009.7 |
| 20260506085115 | 66 | 110 | 1.7 | 7.0 | 0.00 | 0.00 | 0.00 | 70 | 1009.8 |
| 20260506084344 | 66 | 128 | 2.6 | 8.7 | 0.00 | 0.00 | 0.00 | 69 | 1009.7 |
| 20260506083837 | 66 | 157 | 2.6 | 8.7 | 0.00 | 0.00 | 0.00 | 69 | 1009.7 |
| 20260506083331 | 66 | 191 | 1.7 | 6.1 | 0.00 | 0.00 | 0.00 | 69 | 1009.7 |
| 20260506083046 | 66 | 193 | 1.7 | 6.1 | 0.00 | 0.00 | 0.00 | 68 | 1009.8 |
| 20260506082805 | 66 | 245 | 1.7 | 8.7 | 0.00 | 0.00 | 0.00 | 68 | 1009.7 |
| 20260506081814 | 66 | 284 | 2.6 | 8.7 | 0.00 | 0.00 | 0.00 | 68 | 1009.7 |
| 20260506081757 | 66 | 241 | 1.7 | 8.7 | 0.00 | 0.00 | 0.00 | 67 | 1009.8 |
| 20260506080801 | 67 | 256 | 1.7 | 7.8 | 0.00 | 0.00 | 0.00 | 67 | 1009.8 |
| 20260506080255 | 67 | 96 | 1.7 | 7.8 | 0.00 | 0.00 | 0.00 | 67 | 1009.7 |